Location: Dumpton Point
(51.3500°N, 1.4433°E)
Time: 06:10:00
(UTC+00:00)

Altair - Pass Details

Date: 04 October 2022
Orbit: 1501 x 1682 km, 47.2° (Epoch: 26 November)

Event Time Altitude Azimuth Distance (km) Brightness Sun altitude
Rises 12:22:39 0° 286° (WNW) 4,925 10.1 33.5°
Reaches altitude 10° 12:27:30 10° 267° (W) 3,944 9.9 33.4°
Maximum altitude 12:32:50 16° 234° (SW) 3,487 10.3 33.2°
Drops below altitude 10° 12:38:11 10° 202° (SSW) 3,928 11.1 32.9°
Sets 12:43:02 0° 182° (S) 4,895 11.1 32.7°
